Home   Weather   Leoben   Past weeks

Flag for Austria Past Weather in Leoben, Styria, Austria — Yesterday and Last 2 Weeks

Now
23 °F

Broken clouds.


Feels Like: 23 °F
Forecast: 4 / 24 °F
Wind: 1 mph from North

Location: Zeltweg

Current Time: Jan 17, 2017 at 12:26:21 pm

Latest Report: Jan 17, 2017 at 11:50 am


Visibility: 19 mi

Pressure: 30.24 "Hg (28.23 "Hg at 540m altitude)

Humidity: 80%

Dew Point: 18 °F

Location of LeobenLocation

Past Weather in Leoben — Graph

°F

Leoben Temperature Yesterday

Maximum temperature yesterday: 19 °F (at 2:50 pm)
Minimum temperature yesterday: 5 °F (at 12:50 am)
Average temperature yesterday: 13 °F

High & Low Weather Summary for the Past Weeks

 TemperatureHumidityPressure
High45 °F (Jan 4, 1:50 pm)100% (Jan 13, 10:20 am)30.42 "Hg (Jan 13, 10:20 am)
Low3 °F (Jan 11, 8:20 am)30% (Jan 7, 11:50 am)29.42 "Hg (Jan 13, 4:50 am)
Average24 °F70%29.97 "Hg
* Reported Jan 2 12:20 pm — Jan 17 11:20 am, Leoben, Weather by CustomWeather, © 2017

Note: Actual official high and low records may vary slightly from our data, if they occured in-between our weather recording intervals... More about our weather records

Advertising

Leoben Weather History for the Previous 24 Hours

Scroll right to see more
 ConditionsComfort  
Time TempWeatherWind HumidityBarometerVisibility
11:20 am
Tue, Jan 17
21 °FBroken clouds.2 mph80%30.24 "Hg19 mi
10:50 am19 °FPartly sunny.1 mph86%30.24 "Hg19 mi
10:20 am18 °FPartly sunny.1 mph86%30.24 "Hg12 mi
9:50 am18 °FPartly sunny.1 mph86%30.24 "Hg12 mi
9:20 am18 °FPartly sunny.1 mph86%30.24 "Hg12 mi
8:50 am18 °FPartly sunny.1 mph86%30.24 "Hg12 mi
8:20 am18 °FBroken clouds.1 mph93%30.21 "Hg12 mi
7:50 am16 °FPartly sunny.1 mph100%30.21 "Hg12 mi
7:20 am16 °FPassing clouds.2 mph100%30.21 "Hg12 mi
6:50 am16 °FPassing clouds.3 mph100%30.18 "Hg6 mi
6:20 am16 °FPassing clouds.2 mph100%30.18 "Hg6 mi
4:50 am18 °FPassing clouds.2 mph86%30.15 "Hg6 mi
9:50 pm
Mon, Jan 16
16 °FPassing clouds.3 mph86%30.12 "Hg12 mi
8:50 pm16 °FPartly cloudy.2 mph86%30.12 "Hg16 mi
8:20 pm14 °FPartly cloudy.2 mph92%30.09 "Hg16 mi
7:50 pm16 °FPartly cloudy.1 mph86%30.09 "Hg16 mi
7:20 pm16 °FPartly cloudy.1 mph86%30.09 "Hg16 mi
6:50 pm16 °FPartly cloudy.2 mph86%30.07 "Hg16 mi
6:20 pm16 °FPartly cloudy.2 mph79%30.07 "Hg16 mi
5:50 pm18 °FOvercast.1 mph79%30.07 "Hg19 mi
5:20 pm18 °FOvercast.2 mph79%30.07 "Hg19 mi
4:50 pm18 °FPassing clouds.2 mph79%30.07 "Hg19 mi
4:20 pm18 °FPartly sunny.2 mph79%30.07 "Hg19 mi
3:50 pm19 °FBroken clouds.1 mph73%30.04 "Hg19 mi
3:20 pm19 °FBroken clouds.3 mph73%30.04 "Hg19 mi
2:50 pm19 °FBroken clouds.2 mph68%30.04 "Hg19 mi
2:20 pm18 °FPartly sunny.2 mph73%30.04 "Hg25 mi
1:50 pm18 °FPartly sunny.1 mph73%30.04 "Hg25 mi
1:20 pm18 °FPartly sunny.1 mph73%30.04 "Hg25 mi
12:50 pm16 °FPartly sunny.2 mph79%30.07 "Hg25 mi
12:20 pm16 °FPartly sunny.2 mph73%30.07 "Hg25 mi
Weather by CustomWeather, © 2017

See weather overviewHow to use our weather pages